Year,Month,Day,Hour,Minute,Value (Times are PST for temperature in C)
2018,08,09,00,00,18.80
2018,08,09,00,01,18.80
2018,08,09,00,02,18.80
2018,08,09,00,03,18.70
2018,08,09,00,04,18.70
2018,08,09,00,05,18.60
2018,08,09,00,06,18.60
2018,08,09,00,07,18.50
2018,08,09,00,08,18.50
2018,08,09,00,09,18.40
2018,08,09,00,10,18.40
2018,08,09,00,11,18.40
2018,08,09,00,12,18.40
2018,08,09,00,13,18.40
2018,08,09,00,14,18.40
2018,08,09,00,15,18.50
2018,08,09,00,16,18.60
2018,08,09,00,17,18.70
2018,08,09,00,18,18.70
2018,08,09,00,19,18.70
2018,08,09,00,20,18.70
2018,08,09,00,21,18.70
2018,08,09,00,22,18.60
2018,08,09,00,23,18.60
2018,08,09,00,24,18.50
2018,08,09,00,25,18.50
2018,08,09,00,26,18.40
2018,08,09,00,27,18.40
2018,08,09,00,28,18.40
2018,08,09,00,29,18.40
2018,08,09,00,30,18.50
2018,08,09,00,31,18.50
2018,08,09,00,32,18.60
2018,08,09,00,33,18.50
2018,08,09,00,34,18.40
2018,08,09,00,35,18.40
2018,08,09,00,36,18.30
2018,08,09,00,37,18.30
2018,08,09,00,38,18.20
2018,08,09,00,39,18.20
2018,08,09,00,40,18.20
2018,08,09,00,41,18.20
2018,08,09,00,42,18.20
2018,08,09,00,43,18.20
2018,08,09,00,44,18.20
2018,08,09,00,45,18.20
2018,08,09,00,46,18.20
2018,08,09,00,47,18.20
2018,08,09,00,48,18.20
2018,08,09,00,49,18.30
2018,08,09,00,50,18.30
2018,08,09,00,51,18.30
2018,08,09,00,52,18.30
2018,08,09,00,53,18.30
2018,08,09,00,54,18.30
2018,08,09,00,55,18.30
2018,08,09,00,56,18.30
2018,08,09,00,57,18.30
2018,08,09,00,58,18.30
2018,08,09,00,59,18.30
2018,08,09,01,00,18.30
2018,08,09,01,01,18.40
2018,08,09,01,02,18.30
2018,08,09,01,03,18.30
2018,08,09,01,04,18.30
2018,08,09,01,05,18.30
2018,08,09,01,06,18.30
2018,08,09,01,07,18.40
2018,08,09,01,08,18.40
2018,08,09,01,09,18.40
2018,08,09,01,10,18.40
2018,08,09,01,11,18.40
2018,08,09,01,12,18.40
2018,08,09,01,13,18.40
2018,08,09,01,14,18.40
2018,08,09,01,15,18.40
2018,08,09,01,16,18.40
2018,08,09,01,17,18.40
2018,08,09,01,18,18.40
2018,08,09,01,19,18.30
2018,08,09,01,20,18.30
2018,08,09,01,21,18.30
2018,08,09,01,22,18.30
2018,08,09,01,23,18.30
2018,08,09,01,24,18.30
2018,08,09,01,25,18.30
2018,08,09,01,26,18.30
2018,08,09,01,27,18.30
2018,08,09,01,28,18.30
2018,08,09,01,29,18.30
2018,08,09,01,30,18.30
2018,08,09,01,31,18.30
2018,08,09,01,32,18.30
2018,08,09,01,33,18.30
2018,08,09,01,34,18.30
2018,08,09,01,35,18.20
2018,08,09,01,36,18.20
2018,08,09,01,37,18.20
2018,08,09,01,38,18.10
2018,08,09,01,39,18.10
2018,08,09,01,40,18.10
2018,08,09,01,41,18.10
2018,08,09,01,42,18.10
2018,08,09,01,43,18.00
2018,08,09,01,44,18.00
2018,08,09,01,45,17.90
2018,08,09,01,46,17.90
2018,08,09,01,47,17.80
2018,08,09,01,48,17.80
2018,08,09,01,49,17.70
2018,08,09,01,50,17.70
2018,08,09,01,51,17.60
2018,08,09,01,52,17.60
2018,08,09,01,53,17.60
2018,08,09,01,54,17.60
2018,08,09,01,55,17.60
2018,08,09,01,56,17.60
2018,08,09,01,57,17.50
2018,08,09,01,58,17.50
2018,08,09,01,59,17.50
2018,08,09,02,00,17.50
2018,08,09,02,01,17.50
2018,08,09,02,02,17.50
2018,08,09,02,03,17.40
2018,08,09,02,04,17.40
2018,08,09,02,05,17.40
2018,08,09,02,06,17.40
2018,08,09,02,07,17.40
2018,08,09,02,08,17.40
2018,08,09,02,09,17.40
2018,08,09,02,10,17.40
2018,08,09,02,11,17.40
2018,08,09,02,12,17.40
2018,08,09,02,13,17.40
2018,08,09,02,14,17.40
2018,08,09,02,15,17.40
2018,08,09,02,16,17.30
2018,08,09,02,17,17.30
2018,08,09,02,18,17.30
2018,08,09,02,19,17.30
2018,08,09,02,20,17.30
2018,08,09,02,21,17.30
2018,08,09,02,22,17.30
2018,08,09,02,23,17.30
2018,08,09,02,24,17.30
2018,08,09,02,25,17.20
2018,08,09,02,26,17.20
2018,08,09,02,27,17.20
2018,08,09,02,28,17.20
2018,08,09,02,29,17.20
2018,08,09,02,30,17.20
2018,08,09,02,31,17.20
2018,08,09,02,32,17.20
2018,08,09,02,33,17.10
2018,08,09,02,34,17.10
2018,08,09,02,35,17.10
2018,08,09,02,36,17.10
2018,08,09,02,37,17.10
2018,08,09,02,38,17.10
2018,08,09,02,39,17.00
2018,08,09,02,40,17.00
2018,08,09,02,41,17.00
2018,08,09,02,42,17.00
2018,08,09,02,43,17.00
2018,08,09,02,44,16.90
2018,08,09,02,45,16.90
2018,08,09,02,46,16.90
2018,08,09,02,47,17.00
2018,08,09,02,48,17.00
2018,08,09,02,49,17.10
2018,08,09,02,50,17.10
2018,08,09,02,51,17.10
2018,08,09,02,52,17.10
2018,08,09,02,53,17.10
2018,08,09,02,54,17.10
2018,08,09,02,55,17.10
2018,08,09,02,56,17.00
2018,08,09,02,57,17.00
2018,08,09,02,58,17.00
2018,08,09,02,59,16.90
2018,08,09,03,00,16.90
2018,08,09,03,01,16.90
2018,08,09,03,02,16.80
2018,08,09,03,03,16.80
2018,08,09,03,04,16.80
2018,08,09,03,05,16.80
2018,08,09,03,06,16.80
2018,08,09,03,07,16.80
2018,08,09,03,08,16.80
2018,08,09,03,09,16.80
2018,08,09,03,10,16.80
2018,08,09,03,11,16.80
2018,08,09,03,12,16.80
2018,08,09,03,13,16.80
2018,08,09,03,14,16.70
2018,08,09,03,15,16.70
2018,08,09,03,16,16.70
2018,08,09,03,17,16.70
2018,08,09,03,18,16.70
2018,08,09,03,19,16.70
2018,08,09,03,20,16.70
2018,08,09,03,21,16.70
2018,08,09,03,22,16.70
2018,08,09,03,23,16.70
2018,08,09,03,24,16.60
2018,08,09,03,25,16.60
2018,08,09,03,26,16.60
2018,08,09,03,27,16.50
2018,08,09,03,28,16.50
2018,08,09,03,29,16.50
2018,08,09,03,30,16.40
2018,08,09,03,31,16.40
2018,08,09,03,32,16.40
2018,08,09,03,33,16.30
2018,08,09,03,34,16.30
2018,08,09,03,35,16.30
2018,08,09,03,36,16.20
2018,08,09,03,37,16.20
2018,08,09,03,38,16.10
2018,08,09,03,39,16.00
2018,08,09,03,40,15.90
2018,08,09,03,41,15.90
2018,08,09,03,42,15.80
2018,08,09,03,43,15.80
2018,08,09,03,44,15.70
2018,08,09,03,45,15.70
2018,08,09,03,46,15.70
2018,08,09,03,47,15.70
2018,08,09,03,48,15.70
2018,08,09,03,49,15.70
2018,08,09,03,50,15.60
2018,08,09,03,51,15.60
2018,08,09,03,52,15.60
2018,08,09,03,53,15.60
2018,08,09,03,54,15.60
2018,08,09,03,55,15.60
2018,08,09,03,56,15.60
2018,08,09,03,57,15.60
2018,08,09,03,58,15.60
2018,08,09,03,59,15.60
2018,08,09,04,00,15.60
2018,08,09,04,01,15.60
2018,08,09,04,02,15.70
2018,08,09,04,03,15.70
2018,08,09,04,04,15.70
2018,08,09,04,05,15.70
2018,08,09,04,06,15.80
2018,08,09,04,07,15.80
2018,08,09,04,08,15.80
2018,08,09,04,09,15.90
2018,08,09,04,10,15.90
2018,08,09,04,11,15.90
2018,08,09,04,12,15.80
2018,08,09,04,13,15.70
2018,08,09,04,14,15.70
2018,08,09,04,15,15.60
2018,08,09,04,16,15.60
2018,08,09,04,17,15.50
2018,08,09,04,18,15.50
2018,08,09,04,19,15.40
2018,08,09,04,20,15.50
2018,08,09,04,21,15.50
2018,08,09,04,22,15.50
2018,08,09,04,23,15.60
2018,08,09,04,24,15.60
2018,08,09,04,25,15.70
2018,08,09,04,26,15.70
2018,08,09,04,27,15.80
2018,08,09,04,28,15.80
2018,08,09,04,29,15.90
2018,08,09,04,30,16.00
2018,08,09,04,31,16.10
2018,08,09,04,32,16.10
2018,08,09,04,33,16.20
2018,08,09,04,34,16.20
2018,08,09,04,35,16.20
2018,08,09,04,36,16.30
2018,08,09,04,37,16.30
2018,08,09,04,38,16.30
2018,08,09,04,39,16.30
2018,08,09,04,40,16.30
2018,08,09,04,41,16.30
2018,08,09,04,42,16.30
2018,08,09,04,43,16.30
2018,08,09,04,44,16.30
2018,08,09,04,45,16.30
2018,08,09,04,46,16.30
2018,08,09,04,47,16.20
2018,08,09,04,48,16.20
2018,08,09,04,49,16.20
2018,08,09,04,50,16.10
2018,08,09,04,51,16.10
2018,08,09,04,52,16.00
2018,08,09,04,53,15.90
2018,08,09,04,54,15.90
2018,08,09,04,55,15.80
2018,08,09,04,56,15.80
2018,08,09,04,57,15.70
2018,08,09,04,58,15.60
2018,08,09,04,59,15.50
2018,08,09,05,00,15.50
2018,08,09,05,01,15.40
2018,08,09,05,02,15.40
2018,08,09,05,03,15.30
2018,08,09,05,04,15.20
2018,08,09,05,05,15.20
2018,08,09,05,06,15.10
2018,08,09,05,07,15.00
2018,08,09,05,08,14.90
2018,08,09,05,09,14.90
2018,08,09,05,10,14.80
2018,08,09,05,11,14.70
2018,08,09,05,12,14.60
2018,08,09,05,13,14.60
2018,08,09,05,14,14.50
2018,08,09,05,15,14.50
2018,08,09,05,16,14.40
2018,08,09,05,17,14.40
2018,08,09,05,18,14.30
2018,08,09,05,19,14.30
2018,08,09,05,20,14.30
2018,08,09,05,21,14.30
2018,08,09,05,22,14.30
2018,08,09,05,23,14.30
2018,08,09,05,24,14.20
2018,08,09,05,25,14.20
2018,08,09,05,26,14.20
2018,08,09,05,27,14.20
2018,08,09,05,28,14.10
2018,08,09,05,29,14.10
2018,08,09,05,30,14.10
2018,08,09,05,31,14.10
2018,08,09,05,32,14.10
2018,08,09,05,33,14.10
2018,08,09,05,34,14.10
2018,08,09,05,35,14.10
2018,08,09,05,36,14.10
2018,08,09,05,37,14.00
2018,08,09,05,38,14.00
2018,08,09,05,39,14.00
2018,08,09,05,40,14.00
2018,08,09,05,41,14.00
2018,08,09,05,42,14.00
2018,08,09,05,43,14.00
2018,08,09,05,44,14.00
2018,08,09,05,45,14.00
2018,08,09,05,46,14.00
2018,08,09,05,47,14.00
2018,08,09,05,48,14.00
2018,08,09,05,49,14.00
2018,08,09,05,50,14.00
2018,08,09,05,51,13.90
2018,08,09,05,52,13.90
2018,08,09,05,53,13.90
2018,08,09,05,54,13.90
2018,08,09,05,55,13.90
2018,08,09,05,56,13.90
2018,08,09,05,57,13.90
2018,08,09,05,58,13.90
2018,08,09,05,59,13.90
2018,08,09,06,00,13.90
2018,08,09,06,01,13.90
2018,08,09,06,02,13.80
2018,08,09,06,03,13.80
2018,08,09,06,04,13.80
2018,08,09,06,05,13.80
2018,08,09,06,06,13.70
2018,08,09,06,07,13.70
2018,08,09,06,08,13.70
2018,08,09,06,09,13.70
2018,08,09,06,10,13.70
2018,08,09,06,11,13.70
2018,08,09,06,12,13.60
2018,08,09,06,13,13.60
2018,08,09,06,14,13.60
2018,08,09,06,15,13.60
2018,08,09,06,16,13.60
2018,08,09,06,17,13.60
2018,08,09,06,18,13.60
2018,08,09,06,19,13.50
2018,08,09,06,20,13.50
2018,08,09,06,21,13.50
2018,08,09,06,22,13.50
2018,08,09,06,23,13.50
2018,08,09,06,24,13.50
2018,08,09,06,25,13.50
2018,08,09,06,26,13.40
2018,08,09,06,27,13.40
2018,08,09,06,28,13.40
2018,08,09,06,29,13.40
2018,08,09,06,30,13.40
2018,08,09,06,31,13.40
2018,08,09,06,32,13.40
2018,08,09,06,33,13.50
2018,08,09,06,34,13.50
2018,08,09,06,35,13.50
2018,08,09,06,36,13.50
2018,08,09,06,37,13.50
2018,08,09,06,38,13.50
2018,08,09,06,39,13.50
2018,08,09,06,40,13.50
2018,08,09,06,41,13.60
2018,08,09,06,42,13.60
2018,08,09,06,43,13.60
2018,08,09,06,44,13.60
2018,08,09,06,45,13.60
2018,08,09,06,46,13.60
2018,08,09,06,47,13.60
2018,08,09,06,48,13.70
2018,08,09,06,49,13.70
2018,08,09,06,50,13.70
2018,08,09,06,51,13.70
2018,08,09,06,52,13.80
2018,08,09,06,53,13.80
2018,08,09,06,54,13.80
2018,08,09,06,55,13.80
2018,08,09,06,56,13.90
2018,08,09,06,57,13.90
2018,08,09,06,58,13.90
2018,08,09,06,59,13.90
2018,08,09,07,00,13.90
2018,08,09,07,01,14.00
2018,08,09,07,02,14.00
2018,08,09,07,03,14.00
2018,08,09,07,04,14.10
2018,08,09,07,05,14.10
2018,08,09,07,06,14.10
2018,08,09,07,07,14.10
2018,08,09,07,08,14.10
2018,08,09,07,09,14.20
2018,08,09,07,10,14.20
2018,08,09,07,11,14.20
2018,08,09,07,12,14.30
2018,08,09,07,13,14.30
2018,08,09,07,14,14.40
2018,08,09,07,15,14.40
2018,08,09,07,16,14.50
2018,08,09,07,17,14.50
2018,08,09,07,18,14.60
2018,08,09,07,19,14.60
2018,08,09,07,20,14.70
2018,08,09,07,21,14.70
2018,08,09,07,22,14.70
2018,08,09,07,23,14.80
2018,08,09,07,24,14.90
2018,08,09,07,25,15.00
2018,08,09,07,26,15.00
2018,08,09,07,27,15.10
2018,08,09,07,28,15.20
2018,08,09,07,29,15.30
2018,08,09,07,30,15.30
2018,08,09,07,31,15.40
2018,08,09,07,32,15.50
2018,08,09,07,33,15.50
2018,08,09,07,34,15.60
2018,08,09,07,35,15.60
2018,08,09,07,36,15.70
2018,08,09,07,37,15.80
2018,08,09,07,38,15.80
2018,08,09,07,39,15.90
2018,08,09,07,40,16.00
2018,08,09,07,41,16.10
2018,08,09,07,42,16.10
2018,08,09,07,43,16.10
2018,08,09,07,44,16.20
2018,08,09,07,45,16.20
2018,08,09,07,46,16.30
2018,08,09,07,47,16.40
2018,08,09,07,48,16.40
2018,08,09,07,49,16.40
2018,08,09,07,50,16.50
2018,08,09,07,51,16.60
2018,08,09,07,52,16.70
2018,08,09,07,53,16.70
2018,08,09,07,54,16.80
2018,08,09,07,55,16.90
2018,08,09,07,56,17.00
2018,08,09,07,57,17.00
2018,08,09,07,58,17.10
2018,08,09,07,59,17.20
2018,08,09,08,00,17.30
2018,08,09,08,01,17.30
2018,08,09,08,02,17.30
2018,08,09,08,03,17.40
2018,08,09,08,04,17.40
2018,08,09,08,05,17.50
2018,08,09,08,06,17.60
2018,08,09,08,07,17.60
2018,08,09,08,08,17.70
2018,08,09,08,09,17.80
2018,08,09,08,10,17.80
2018,08,09,08,11,17.90
2018,08,09,08,12,18.00
2018,08,09,08,13,18.00
2018,08,09,08,14,18.10
2018,08,09,08,15,18.10
2018,08,09,08,16,18.10
2018,08,09,08,17,18.10
2018,08,09,08,18,18.10
2018,08,09,08,19,18.10
2018,08,09,08,20,18.10
2018,08,09,08,21,18.10
2018,08,09,08,22,18.20
2018,08,09,08,23,18.20
2018,08,09,08,24,18.20
2018,08,09,08,25,18.30
2018,08,09,08,26,18.30
2018,08,09,08,27,18.30
2018,08,09,08,28,18.40
2018,08,09,08,29,18.50
2018,08,09,08,30,18.50
2018,08,09,08,31,18.60
2018,08,09,08,32,18.60
2018,08,09,08,33,18.60
2018,08,09,08,34,18.60
2018,08,09,08,35,18.60
2018,08,09,08,36,18.60
2018,08,09,08,37,18.50
2018,08,09,08,38,18.50
2018,08,09,08,39,18.50
2018,08,09,08,40,18.50
2018,08,09,08,41,18.50
2018,08,09,08,42,18.60
2018,08,09,08,43,18.60
2018,08,09,08,44,18.60
2018,08,09,08,45,18.60
2018,08,09,08,46,18.60
2018,08,09,08,47,18.60
2018,08,09,08,48,18.60
2018,08,09,08,49,18.60
2018,08,09,08,50,18.60
2018,08,09,08,51,18.70
2018,08,09,08,52,18.70
2018,08,09,08,53,18.70
2018,08,09,08,54,18.80
2018,08,09,08,55,18.80
2018,08,09,08,56,18.80
2018,08,09,08,57,18.80
2018,08,09,08,58,18.90
2018,08,09,08,59,18.90
2018,08,09,09,00,19.00
2018,08,09,09,01,19.10
2018,08,09,09,02,19.20
2018,08,09,09,03,19.30
2018,08,09,09,04,19.30
2018,08,09,09,05,19.40
2018,08,09,09,06,19.50
2018,08,09,09,07,19.60
2018,08,09,09,08,19.60
2018,08,09,09,09,19.70
2018,08,09,09,10,19.70
2018,08,09,09,11,19.70
2018,08,09,09,12,19.80
2018,08,09,09,13,19.80
2018,08,09,09,14,19.90
2018,08,09,09,15,19.90
2018,08,09,09,16,20.00
2018,08,09,09,17,20.00
2018,08,09,09,18,20.10
2018,08,09,09,19,20.20
2018,08,09,09,20,20.30
2018,08,09,09,21,20.40
2018,08,09,09,22,20.40
2018,08,09,09,23,20.50
2018,08,09,09,24,20.50
2018,08,09,09,25,20.60
2018,08,09,09,26,20.60
2018,08,09,09,27,20.60
2018,08,09,09,28,20.70
2018,08,09,09,29,20.80
2018,08,09,09,30,20.90
2018,08,09,09,31,21.00
2018,08,09,09,32,21.10
2018,08,09,09,33,21.20
2018,08,09,09,34,21.30
2018,08,09,09,35,21.30
2018,08,09,09,36,21.30
2018,08,09,09,37,21.30
2018,08,09,09,38,21.30
2018,08,09,09,39,21.40
2018,08,09,09,40,21.40
2018,08,09,09,41,21.50
2018,08,09,09,42,21.60
2018,08,09,09,43,21.60
2018,08,09,09,44,21.60
2018,08,09,09,45,21.60
2018,08,09,09,46,21.70
2018,08,09,09,47,21.70
2018,08,09,09,48,21.80
2018,08,09,09,49,21.80
2018,08,09,09,50,21.80
2018,08,09,09,51,21.80
2018,08,09,09,52,21.80
2018,08,09,09,53,21.90
2018,08,09,09,54,22.00
2018,08,09,09,55,22.10
2018,08,09,09,56,22.10
2018,08,09,09,57,22.20
2018,08,09,09,58,22.20
2018,08,09,09,59,22.10
2018,08,09,10,00,22.00
2018,08,09,10,01,21.90
2018,08,09,10,02,21.80
2018,08,09,10,03,21.80
2018,08,09,10,04,21.70
2018,08,09,10,05,21.60
2018,08,09,10,06,21.60
2018,08,09,10,07,21.50
2018,08,09,10,08,21.40
2018,08,09,10,09,21.30
2018,08,09,10,10,21.30
2018,08,09,10,11,21.20
2018,08,09,10,12,21.10
2018,08,09,10,13,21.10
2018,08,09,10,14,21.10
2018,08,09,10,15,21.20
2018,08,09,10,16,21.20
2018,08,09,10,17,21.10
2018,08,09,10,18,21.10
2018,08,09,10,19,21.00
2018,08,09,10,20,20.90
2018,08,09,10,21,20.70
2018,08,09,10,22,20.60
2018,08,09,10,23,20.50
2018,08,09,10,24,20.40
2018,08,09,10,25,20.20
2018,08,09,10,26,20.10
2018,08,09,10,27,19.90
2018,08,09,10,28,19.70
2018,08,09,10,29,19.60
2018,08,09,10,30,19.40
2018,08,09,10,31,19.20
2018,08,09,10,32,19.00
2018,08,09,10,33,18.90
2018,08,09,10,34,18.80
2018,08,09,10,35,18.80
2018,08,09,10,36,18.90
2018,08,09,10,37,18.90
2018,08,09,10,38,18.90
2018,08,09,10,39,18.90
2018,08,09,10,40,18.90
2018,08,09,10,41,18.90
2018,08,09,10,42,18.90
2018,08,09,10,43,18.80
2018,08,09,10,44,18.80
2018,08,09,10,45,18.90
2018,08,09,10,46,19.00
2018,08,09,10,47,19.10
2018,08,09,10,48,19.20
2018,08,09,10,49,19.20
2018,08,09,10,50,19.30
2018,08,09,10,51,19.30
2018,08,09,10,52,19.30
2018,08,09,10,53,19.30
2018,08,09,10,54,19.40
2018,08,09,10,55,19.50
2018,08,09,10,56,19.60
2018,08,09,10,57,19.60
2018,08,09,10,58,19.60
2018,08,09,10,59,19.70
2018,08,09,11,00,19.80
2018,08,09,11,01,19.90
2018,08,09,11,02,20.00
2018,08,09,11,03,20.00
2018,08,09,11,04,20.10
2018,08,09,11,05,20.10
2018,08,09,11,06,20.10
2018,08,09,11,07,20.00
2018,08,09,11,08,20.00
2018,08,09,11,09,20.10
2018,08,09,11,10,20.10
2018,08,09,11,11,20.20
2018,08,09,11,12,20.20
2018,08,09,11,13,20.30
2018,08,09,11,14,20.30
2018,08,09,11,15,20.30
2018,08,09,11,16,20.40
2018,08,09,11,17,20.40
2018,08,09,11,18,20.50
2018,08,09,11,19,20.60
2018,08,09,11,20,20.60
2018,08,09,11,21,20.60
2018,08,09,11,22,20.60
2018,08,09,11,23,20.70
2018,08,09,11,24,20.70
2018,08,09,11,25,20.70
2018,08,09,11,26,20.70
2018,08,09,11,27,20.70
2018,08,09,11,28,20.80
2018,08,09,11,29,20.90
2018,08,09,11,30,21.00
2018,08,09,11,31,21.20
2018,08,09,11,32,21.20
2018,08,09,11,33,21.30
2018,08,09,11,34,21.50
2018,08,09,11,35,21.60
2018,08,09,11,36,21.80
2018,08,09,11,37,21.80
2018,08,09,11,38,21.90
2018,08,09,11,39,22.00
2018,08,09,11,40,22.10
2018,08,09,11,41,22.10
2018,08,09,11,42,22.10
2018,08,09,11,43,22.10
2018,08,09,11,44,22.10
2018,08,09,11,45,22.00
2018,08,09,11,46,22.00
2018,08,09,11,47,22.00
2018,08,09,11,48,22.10
2018,08,09,11,49,22.20
2018,08,09,11,50,22.30
2018,08,09,11,51,22.40
2018,08,09,11,52,22.50
2018,08,09,11,53,22.60
2018,08,09,11,54,22.60
2018,08,09,11,55,22.60
2018,08,09,11,56,22.50
2018,08,09,11,57,22.50
2018,08,09,11,58,22.40
2018,08,09,11,59,22.40
2018,08,09,12,00,22.50
2018,08,09,12,01,22.50
2018,08,09,12,02,22.60
2018,08,09,12,03,22.60
2018,08,09,12,04,22.70
2018,08,09,12,05,22.70
2018,08,09,12,06,22.70
2018,08,09,12,07,22.70
2018,08,09,12,08,22.80
2018,08,09,12,09,22.80
2018,08,09,12,10,22.90
2018,08,09,12,11,22.90
2018,08,09,12,12,23.00
2018,08,09,12,13,23.10
2018,08,09,12,14,23.10
2018,08,09,12,15,23.10
2018,08,09,12,16,23.10
2018,08,09,12,17,23.10
2018,08,09,12,18,23.20
2018,08,09,12,19,23.30
2018,08,09,12,20,23.40
2018,08,09,12,21,23.50
2018,08,09,12,22,23.50
2018,08,09,12,23,23.50
2018,08,09,12,24,23.50
2018,08,09,12,25,23.60
2018,08,09,12,26,23.80
2018,08,09,12,27,23.90
2018,08,09,12,28,24.00
2018,08,09,12,29,24.10
2018,08,09,12,30,24.20
2018,08,09,12,31,24.20
2018,08,09,12,32,24.10
2018,08,09,12,33,24.10
2018,08,09,12,34,24.10
2018,08,09,12,35,24.20
2018,08,09,12,36,24.20
2018,08,09,12,37,24.30
2018,08,09,12,38,24.30
2018,08,09,12,39,24.30
2018,08,09,12,40,24.20
2018,08,09,12,41,24.20
2018,08,09,12,42,24.20
2018,08,09,12,43,24.20
2018,08,09,12,44,24.20
2018,08,09,12,45,24.20
2018,08,09,12,46,24.30
2018,08,09,12,47,24.40
2018,08,09,12,48,24.60
2018,08,09,12,49,24.70
2018,08,09,12,50,24.90
2018,08,09,12,51,25.00
2018,08,09,12,52,25.10
2018,08,09,12,53,25.20
2018,08,09,12,54,25.10
2018,08,09,12,55,25.00
2018,08,09,12,56,24.90
2018,08,09,12,57,24.70
2018,08,09,12,58,24.60
2018,08,09,12,59,24.60
2018,08,09,13,00,24.60
2018,08,09,13,01,24.60
2018,08,09,13,02,24.50
2018,08,09,13,03,24.60
2018,08,09,13,04,24.60
2018,08,09,13,05,24.50
2018,08,09,13,06,24.60
2018,08,09,13,07,24.50
2018,08,09,13,08,24.50
2018,08,09,13,09,24.40
2018,08,09,13,10,24.40
2018,08,09,13,11,24.40
2018,08,09,13,12,24.50
2018,08,09,13,13,24.50
2018,08,09,13,14,24.50
2018,08,09,13,15,24.50
2018,08,09,13,16,24.40
2018,08,09,13,17,24.40
2018,08,09,13,18,24.40
2018,08,09,13,19,24.30
2018,08,09,13,20,24.30
2018,08,09,13,21,24.30
2018,08,09,13,22,24.40
2018,08,09,13,23,24.40
2018,08,09,13,24,24.40
2018,08,09,13,25,24.40
2018,08,09,13,26,24.50
2018,08,09,13,27,24.40
2018,08,09,13,28,24.50
2018,08,09,13,29,24.60
2018,08,09,13,30,24.60
2018,08,09,13,31,24.60
2018,08,09,13,32,24.60
2018,08,09,13,33,24.70
2018,08,09,13,34,24.70
2018,08,09,13,35,24.80
2018,08,09,13,36,24.80
2018,08,09,13,37,24.90
2018,08,09,13,38,24.90
2018,08,09,13,39,24.90
2018,08,09,13,40,24.80
2018,08,09,13,41,24.90
2018,08,09,13,42,24.90
2018,08,09,13,43,24.90
2018,08,09,13,44,24.80
2018,08,09,13,45,24.80
2018,08,09,13,46,24.70
2018,08,09,13,47,24.70
2018,08,09,13,48,24.70
2018,08,09,13,49,24.70
2018,08,09,13,50,24.70
2018,08,09,13,51,24.70
2018,08,09,13,52,24.70
2018,08,09,13,53,24.60
2018,08,09,13,54,24.60
2018,08,09,13,55,24.70
2018,08,09,13,56,24.70
2018,08,09,13,57,24.70
2018,08,09,13,58,24.70
2018,08,09,13,59,24.80
2018,08,09,14,00,24.80
2018,08,09,14,01,24.80
2018,08,09,14,02,24.90
2018,08,09,14,03,25.00
2018,08,09,14,04,25.10
2018,08,09,14,05,25.10
2018,08,09,14,06,25.10
2018,08,09,14,07,25.10
2018,08,09,14,08,25.10
2018,08,09,14,09,25.10
2018,08,09,14,10,25.10
2018,08,09,14,11,25.10
2018,08,09,14,12,24.90
2018,08,09,14,13,24.80
2018,08,09,14,14,24.80
2018,08,09,14,15,24.70
2018,08,09,14,16,24.70
2018,08,09,14,17,24.70
2018,08,09,14,18,24.70
2018,08,09,14,19,24.70
2018,08,09,14,20,24.70
2018,08,09,14,21,24.80
2018,08,09,14,22,24.80
2018,08,09,14,23,24.90
2018,08,09,14,24,24.90
2018,08,09,14,25,25.00
2018,08,09,14,26,25.00
2018,08,09,14,27,25.10
2018,08,09,14,28,25.20
2018,08,09,14,29,25.30
2018,08,09,14,30,25.40
2018,08,09,14,31,25.40
2018,08,09,14,32,25.30
2018,08,09,14,33,25.30
2018,08,09,14,34,25.30
2018,08,09,14,35,25.20
2018,08,09,14,36,25.30
2018,08,09,14,37,25.30
2018,08,09,14,38,25.30
2018,08,09,14,39,25.30
2018,08,09,14,40,25.40
2018,08,09,14,41,25.40
2018,08,09,14,42,25.40
2018,08,09,14,43,25.30
2018,08,09,14,44,25.40
2018,08,09,14,45,25.40
2018,08,09,14,46,25.40
2018,08,09,14,47,25.30
2018,08,09,14,48,25.30
2018,08,09,14,49,25.30
2018,08,09,14,50,25.30
2018,08,09,14,51,25.40
2018,08,09,14,52,25.50
2018,08,09,14,53,25.50
2018,08,09,14,54,25.70
2018,08,09,14,55,25.80
2018,08,09,14,56,26.00
2018,08,09,14,57,26.10
2018,08,09,14,58,26.20
2018,08,09,14,59,26.30
2018,08,09,15,00,26.40
2018,08,09,15,01,26.50
2018,08,09,15,02,26.50
2018,08,09,15,03,26.60
2018,08,09,15,04,26.60
2018,08,09,15,05,26.60
2018,08,09,15,06,26.60
2018,08,09,15,07,26.70
2018,08,09,15,08,26.80
2018,08,09,15,09,26.90
2018,08,09,15,10,27.00
2018,08,09,15,11,27.10
2018,08,09,15,12,27.30
2018,08,09,15,13,27.40
2018,08,09,15,14,27.50
2018,08,09,15,15,27.50
2018,08,09,15,16,27.60
2018,08,09,15,17,27.60
2018,08,09,15,18,27.60
2018,08,09,15,19,27.70
2018,08,09,15,20,27.80
2018,08,09,15,21,27.80
2018,08,09,15,22,27.80
2018,08,09,15,23,27.70
2018,08,09,15,24,27.60
2018,08,09,15,25,27.50
2018,08,09,15,26,27.40
2018,08,09,15,27,27.40
2018,08,09,15,28,27.40
2018,08,09,15,29,27.50
2018,08,09,15,30,27.60
2018,08,09,15,31,27.60
2018,08,09,15,32,27.70
2018,08,09,15,33,27.70
2018,08,09,15,34,27.70
2018,08,09,15,35,27.70
2018,08,09,15,36,27.60
2018,08,09,15,37,27.60
2018,08,09,15,38,27.60
2018,08,09,15,39,27.60
2018,08,09,15,40,27.70
2018,08,09,15,41,27.70
2018,08,09,15,42,27.80
2018,08,09,15,43,27.90
2018,08,09,15,44,28.00
2018,08,09,15,45,28.10
2018,08,09,15,46,28.20
2018,08,09,15,47,28.20
2018,08,09,15,48,28.10
2018,08,09,15,49,27.90
2018,08,09,15,50,27.80
2018,08,09,15,51,27.60
2018,08,09,15,52,27.60
2018,08,09,15,53,27.60
2018,08,09,15,54,27.50
2018,08,09,15,55,27.40
2018,08,09,15,56,27.40
2018,08,09,15,57,27.30
2018,08,09,15,58,27.30
2018,08,09,15,59,27.30
2018,08,09,16,00,27.30
2018,08,09,16,01,27.30
2018,08,09,16,02,27.30
2018,08,09,16,03,27.30
2018,08,09,16,04,27.30
2018,08,09,16,05,27.30
2018,08,09,16,06,27.30
2018,08,09,16,07,27.40
2018,08,09,16,08,27.40
2018,08,09,16,09,27.40
2018,08,09,16,10,27.40
2018,08,09,16,11,27.30
2018,08,09,16,12,27.20
2018,08,09,16,13,27.20
2018,08,09,16,14,27.10
2018,08,09,16,15,27.10
2018,08,09,16,16,27.10
2018,08,09,16,17,27.10
2018,08,09,16,18,27.20
2018,08,09,16,19,27.20
2018,08,09,16,20,27.30
2018,08,09,16,21,27.30
2018,08,09,16,22,27.30
2018,08,09,16,23,27.30
2018,08,09,16,24,27.30
2018,08,09,16,25,27.30
2018,08,09,16,26,27.30
2018,08,09,16,27,27.30
2018,08,09,16,28,27.30
2018,08,09,16,29,27.20
2018,08,09,16,30,27.30
2018,08,09,16,31,27.30
2018,08,09,16,32,27.30
2018,08,09,16,33,27.30
2018,08,09,16,34,27.20
2018,08,09,16,35,27.20
2018,08,09,16,36,27.30
2018,08,09,16,37,27.30
2018,08,09,16,38,27.30
2018,08,09,16,39,27.30
2018,08,09,16,40,27.30
2018,08,09,16,41,27.40
2018,08,09,16,42,27.40
2018,08,09,16,43,27.40
2018,08,09,16,44,27.40
2018,08,09,16,45,27.40
2018,08,09,16,46,27.30
2018,08,09,16,47,27.30
2018,08,09,16,48,27.20
2018,08,09,16,49,27.10
2018,08,09,16,50,27.00
2018,08,09,16,51,26.90
2018,08,09,16,52,26.90
2018,08,09,16,53,26.80
2018,08,09,16,54,26.80
2018,08,09,16,55,26.80
2018,08,09,16,56,26.70
2018,08,09,16,57,26.70
2018,08,09,16,58,26.60
2018,08,09,16,59,26.60
2018,08,09,17,00,26.50
2018,08,09,17,01,26.40
2018,08,09,17,02,26.40
2018,08,09,17,03,26.40
2018,08,09,17,04,26.40
2018,08,09,17,05,26.40
2018,08,09,17,06,26.50
2018,08,09,17,07,26.60
2018,08,09,17,08,26.60
2018,08,09,17,09,26.70
2018,08,09,17,10,26.80
2018,08,09,17,11,26.80
2018,08,09,17,12,26.80
2018,08,09,17,13,26.90
2018,08,09,17,14,26.90
2018,08,09,17,15,26.90
2018,08,09,17,16,27.00
2018,08,09,17,17,27.00
2018,08,09,17,18,27.10
2018,08,09,17,19,27.10